Weather History for Guatemala Aeropuertola Aurora, Guatemala

Change the Weather History Date:

Saturday, October 26, 2013

  Actual Average Record
Temperature  
Mean Temperature 68 °F -  
Max Temperature 73 °F 71 °F - ()
Min Temperature 62 °F 56 °F - ()
Cooling Degree Days 2    
Growing Degree Days 18 (Base 50)    
Moisture  
Dew Point 63 °F    
Average Humidity 86    
Maximum Humidity 100    
Minimum Humidity 65    
Precipitation  
Precipitation 0.12 in - - ()
Sea Level Pressure  
Sea Level Pressure 30.21 in    
Wind  
Wind Speed 8 mph ()    
Max Wind Speed 14 mph    
Max Gust Speed -    
Visibility 5.9 miles    
Events Rain    
T = Trace of Precipitation, MM = Missing Value Source: Averaged Metar Reports

Daily Weather History Graph

Daily Weather History Graph

Search for Another Location

Airport:

Trip Planner

Search our weather history database for the weather conditions in past years. The results will help you decide how hot, cold, wet, or windy it might be!

Date:

Astronomy

Oct. 26, 2013 Rise Set
Actual Time 5:55 AM CST 5:36 PM CST
Civil Twilight 5:33 AM CST 5:57 PM CST
Nautical Twilight 5:08 AM CST 6:23 PM CST
Astronomical Twilight 4:43 AM CST 6:48 PM CST
Moon 11:56 PM CST (10/26) 12:04 PM CST (10/26)
Length of Visible Light 12h 23m
Length of Day
11h 40m
Waning Gibbous, 52% of the Moon is Illuminated
Oct 26
Waning Gibbous
Oct 26
Last Quarter
Nov 3
New
Nov 9
First Quarter
Nov 17
Full

Hourly Weather History & Observations

Time (CST) Temp. Dew Point Humidity Pressure Visibility Wind Dir Wind Speed Gust Speed Precip Events Conditions
12:00 AM 64.4 °F 62.6 °F 94% 30.27 in 6.2 mi North 6.9 mph - N/A   Light Drizzle
1:00 AM 62.6 °F 60.8 °F 94% 30.24 in 6.2 mi North 6.9 mph - N/A   Mostly Cloudy
2:00 AM 62.6 °F 60.8 °F 94% 30.21 in 1.9 mi North 6.9 mph - N/A   Drizzle
2:12 AM - - N/A% - 5.0 mi North 9.2 mph - N/A   Light Drizzle
3:00 AM 62.6 °F 62.6 °F 100% 30.21 in 5.0 mi North 6.9 mph - N/A   Light Drizzle
4:00 AM 62.6 °F 62.6 °F 100% 30.21 in 6.2 mi North 11.5 mph - N/A   Overcast
5:00 AM 62.6 °F 60.8 °F 94% 30.24 in 6.2 mi North 9.2 mph - N/A   Mostly Cloudy
6:00 AM 63 °F 62 °F 93% 29.93 in 25 mi North 9.2 mph - -   Partly Cloudy
6:00 AM 62.6 °F 60.8 °F 94% 30.24 in 6.2 mi North 9.2 mph - N/A   Mostly Cloudy
7:00 AM 62.6 °F 62.6 °F 100% 30.27 in 6.2 mi NNE 9.2 mph - N/A   Mostly Cloudy
8:00 AM 64.4 °F 62.6 °F 94% 30.27 in 6.2 mi North 9.2 mph - N/A   Mostly Cloudy
9:00 AM 68.0 °F 64.4 °F 88% 30.30 in 6.2 mi North 9.2 mph - N/A   Scattered Clouds
10:00 AM 69.8 °F 62.6 °F 78% 30.30 in 6.2 mi North 9.2 mph - N/A   Mostly Cloudy
11:00 AM 71.6 °F 62.6 °F 73% 30.27 in 6.2 mi NNE 9.2 mph - N/A   Mostly Cloudy
12:00 PM 72 °F 63 °F 65% 29.91 in 25 mi NNE 9.2 mph - -   Overcast
12:00 PM 71.6 °F 62.6 °F 73% 30.24 in 6.2 mi NNE 9.2 mph - N/A   Mostly Cloudy
1:00 PM 71.6 °F 62.6 °F 73% 30.21 in 6.2 mi NNE 9.2 mph - N/A   Mostly Cloudy
2:00 PM 73.4 °F 62.6 °F 69% 30.18 in 6.2 mi NNE 11.5 mph - N/A   Mostly Cloudy
3:00 PM 73.4 °F 60.8 °F 65% 30.15 in 6.2 mi NNE 13.8 mph - N/A   Mostly Cloudy
4:00 PM 71.6 °F 62.6 °F 73% 30.15 in 6.2 mi NE 13.8 mph - N/A   Scattered Clouds
5:00 PM 69.8 °F 62.6 °F 78% 30.18 in 6.2 mi NNE 11.5 mph - N/A   Scattered Clouds
6:00 PM 68.0 °F 62.6 °F 83% 30.18 in 6.2 mi North 13.8 mph - N/A   Mostly Cloudy
7:00 PM 66.2 °F 62.6 °F 88% 30.21 in 6.2 mi North 11.5 mph - N/A   Mostly Cloudy
8:00 PM 66.2 °F 62.6 °F 88% 30.24 in 6.2 mi North 9.2 mph - N/A   Mostly Cloudy
9:00 PM 66.2 °F 64.4 °F 94% 30.27 in 6.2 mi North 6.9 mph - N/A   Mostly Cloudy
10:00 PM 66.2 °F 64.4 °F 94% 30.27 in 6.2 mi North 9.2 mph - N/A   Mostly Cloudy
11:00 PM 64.4 °F 64.4 °F 100% 30.24 in 6.2 mi North 6.9 mph - N/A   Overcast
11:30 PM - - N/A% - 5.0 mi North 6.9 mph - N/A Rain Light Rain